Orbital Elements at Epoch 2459200.5 (2020-Dec-17.0) TDB
Reference: JPL 13 (heliocentric ecliptic J2000)
Element | Value | Uncertainty (1-sigma) | Units |
e | .2690292764924687 | 9.9064e-07 | |
a | .9739701123465436 | 8.0301e-08 | au |
q | .7119436376966646 | 1.0069e-06 | au |
i | 27.98472001110432 | 0.00010343 | deg |
node | 358.8612395273366 | 4.7255e-05 | deg |
peri | 75.39298915504794 | 7.2929e-05 | deg |
M | 4.021826399862574 | 7.5794e-05 | deg |
tp | 2459196.577728142380 (2020-Dec-13.07772814) | 7.37e-05 | TDB |
period | 351.0887165073551 0.96 | 4.342e-05 1.189e-07 | d yr |
n | 1.025381856703612 | 1.2681e-07 | deg/d |
Q | 1.235996586996423 | 1.019e-07 | au |
|
| | Orbit Determination Parameters
Additional Information
|